GFSFLT1_500_rhum_339.txt.gz
RH
45 51 51 56 60 62 64 59 55 58 63 68 56 61 73 85 80 90 88 99 96 74 62 62 66 45 27 5 2 3 4 4
50 56 66 67 71 69 74 74 59 65 73 62 69 79 86 83 84 93 91 91 94 64 62 73 51 28 4 3 4 4 4 4
52 63 73 75 80 80 87 72 71 77 66 74 84 80 82 86 88 92 91 92 66 69 80 58 29 4 3 4 5 5 4 4
54 74 77 82 86 88 87 79 80 66 85 91 89 87 88 89 91 92 94 85 79 87 64 34 5 3 4 5 5 4 4 6
56 80 83 86 86 93 88 86 65 87 95 94 96 94 94 94 95 95 95 93 95 74 36 5 4 4 5 6 5 4 6 7
51 75 84 87 96 94 89 69 87 97 95 100 99 98 100 100 100 97 98 94 83 43 8 4 5 6 6 5 4 5 7 14
64 82 94 97 93 77 74 91 98 98 100 99 99 100 96 98 100 100 96 90 49 10 5 6 6 7 6 4 5 7 16 24
61 61 73 70 77 83 98 97 98 99 99 90 98 98 97 99 100 99 95 58 14 4 7 6 7 6 4 4 8 16 25 40
59 61 63 84 92 98 98 100 78 95 96 93 98 100 92 96 99 94 79 22 4 7 7 7 7 5 4 8 17 28 39 44
63 74 89 90 89 94 100 77 67 73 86 93 99 93 88 93 92 88 35 5 7 7 8 8 6 4 8 16 27 37 35 22
87 88 86 90 99 91 70 65 98 99 100 100 96 86 89 90 91 38 10 6 8 8 9 7 4 7 16 25 32 27 22 52
86 92 99 99 86 77 86 89 99 100 100 94 89 91 90 96 53 18 6 8 9 9 8 5 6 14 25 28 20 26 55 73
100 100 95 89 90 100 100 100 99 100 100 88 92 98 100 85 52 11 8 10 9 10 7 5 12 23 30 20 25 56 73 79
100 95 84 100 93 93 99 100 99 100 96 93 100 100 100 97 38 8 11 10 11 9 6 7 17 30 29 26 47 68 74 82
100 100 100 98 91 98 97 99 100 96 97 99 100 100 100 76 9 10 11 11 12 8 5 12 21 28 33 48 65 71 76 84
94 85 94 98 99 99 96 100 100 98 99 100 100 100 99 20 9 12 12 13 12 7 6 16 28 31 45 62 74 78 84 88
62 86 100 100 100 100 100 100 99 100 94 100 100 100 45 7 12 14 13 15 11 6 9 21 36 40 54 68 75 83 86 88
62 50 91 100 99 100 100 100 100 96 98 100 100 69 8 9 15 14 15 17 11 6 12 25 40 46 57 68 71 81 86 87
100 99 100 100 100 100 100 100 99 98 97 100 97 22 7 12 17 15 17 18 12 6 14 29 45 52 61 66 69 81 87 89

GFSFLT1_500_rhum_342.txt.gz
RH
56 63 73 84 89 81 81 85 87 86 83 97 94 82 74 76 76 71 75 79 82 84 96 85 82 75 46 16 4 3 4 6
64 70 79 80 83 87 92 98 96 89 96 97 88 78 78 65 63 78 82 84 76 88 78 82 76 46 16 4 4 5 7 6
68 75 74 72 84 91 99 98 92 97 97 89 78 81 71 64 66 83 88 79 76 75 83 79 52 22 5 4 5 7 6 5
74 77 81 73 85 95 96 96 97 98 95 85 91 86 87 73 76 79 80 74 84 80 80 64 31 5 4 6 8 7 4 4
60 58 65 81 86 94 98 95 100 96 73 94 83 65 71 73 78 92 86 80 74 77 70 32 5 5 6 8 7 4 5 11
42 65 82 76 71 77 93 89 83 58 98 81 77 95 100 90 91 91 84 75 77 77 37 8 6 7 9 7 5 6 13 24
49 54 62 64 64 60 74 67 55 91 90 75 65 100 100 99 91 92 83 84 84 46 12 6 7 9 8 5 6 11 19 16
66 69 66 51 51 70 79 66 99 85 77 66 86 100 100 99 95 94 96 97 63 24 7 8 10 10 7 6 9 12 10 15
62 71 72 70 78 88 91 100 86 67 87 93 74 99 100 99 96 97 95 92 52 9 8 10 11 9 6 8 9 10 29 47
87 92 64 55 94 97 86 87 79 88 96 84 100 100 100 98 99 98 95 75 13 9 10 11 11 7 7 8 11 30 45 53
75 44 80 98 100 100 86 92 93 84 82 98 100 100 100 98 97 94 91 19 10 10 11 12 9 6 9 10 29 46 50 53
31 45 75 91 91 98 100 94 100 96 100 100 100 100 98 99 98 98 28 9 11 12 13 12 6 10 13 22 42 54 55 58
20 38 89 100 100 100 91 96 100 100 99 100 100 100 98 100 98 49 10 12 12 13 14 11 7 14 22 36 53 58 65 74
18 37 66 78 79 73 99 99 100 100 100 100 100 100 99 100 84 27 12 14 14 15 15 9 9 18 32 45 60 65 71 78
18 34 48 67 54 53 92 98 98 98 100 100 100 100 100 97 31 14 14 15 15 17 15 7 12 24 38 56 65 67 73 77
23 62 84 100 100 96 100 100 100 100 100 100 100 100 98 44 17 14 16 16 16 19 14 7 18 32 44 63 66 66 77 82
22 45 100 83 81 99 100 98 100 100 100 100 100 100 84 33 14 16 17 17 17 21 12 10 24 42 51 61 64 71 78 92
41 49 72 83 88 98 98 100 100 100 100 100 100 98 41 17 15 18 18 17 18 22 11 12 29 48 59 64 66 72 84 96
41 54 56 67 72 82 96 100 100 100 100 100 98 57 44 15 16 21 18 16 18 23 11 12 28 52 71 74 72 78 88 90

GFSFLT1_500_rhum_345.txt.gz
RH
49 45 64 77 86 90 83 77 77 91 99 94 96 84 81 65 64 57 53 62 64 72 75 71 66 65 66 56 21 6 5 5
33 40 72 81 84 91 88 88 92 99 95 96 93 77 86 72 52 68 77 93 80 73 70 75 75 75 68 31 6 5 6 7
30 61 82 82 77 76 81 89 97 94 95 99 66 99 84 64 54 53 64 85 81 73 77 81 80 76 48 10 5 6 9 7
43 52 54 57 74 85 82 76 67 82 99 89 91 96 75 62 54 60 71 83 91 83 91 83 80 61 10 5 6 9 8 5
45 47 54 58 64 69 70 54 67 94 90 100 89 78 68 74 73 79 84 100 96 94 87 79 63 13 6 7 10 9 5 4
55 55 65 70 68 77 63 42 92 97 100 95 72 78 75 77 85 87 100 96 100 88 83 68 13 7 8 11 11 6 4 10
41 56 58 74 91 98 48 77 100 98 88 76 88 74 78 98 97 100 96 99 94 88 74 16 8 8 12 13 7 5 8 32
31 42 42 45 70 53 61 100 100 98 84 88 87 98 100 98 97 100 100 99 95 83 20 10 10 13 14 10 6 6 24 40
24 24 40 34 43 71 100 89 93 88 85 85 96 100 100 98 100 100 100 100 92 34 12 11 13 15 14 7 7 16 36 43
11 7 6 17 35 53 77 100 93 94 95 93 100 100 98 98 100 98 100 100 61 15 12 13 15 16 11 7 12 34 46 49
6 4 4 9 32 33 49 58 49 69 88 100 98 91 82 100 100 100 99 87 25 13 14 15 18 15 8 10 24 43 53 55
4 3 4 8 18 34 77 84 75 100 100 98 100 96 100 100 100 100 93 39 14 15 16 18 19 11 10 19 34 51 58 63
4 3 5 13 35 80 93 88 83 83 90 94 96 98 100 100 100 100 64 18 15 17 17 20 18 9 16 34 45 56 64 73
4 9 21 24 32 65 77 70 72 86 92 100 100 100 100 100 97 90 28 14 16 18 17 22 15 11 26 45 53 67 73 78
7 17 20 25 36 61 69 60 71 89 100 100 100 100 100 99 94 38 14 16 17 17 18 23 14 14 31 50 64 78 83 86
11 19 26 35 37 50 52 49 83 95 98 98 100 99 99 79 57 16 16 20 17 16 18 24 12 20 37 54 71 81 92 91
11 19 22 26 29 40 49 65 73 77 93 99 100 99 79 78 21 18 21 24 17 15 19 24 9 25 48 61 74 84 86 87
18 21 21 24 32 45 55 61 68 80 88 97 100 92 90 39 21 22 30 27 17 14 19 22 9 30 57 72 78 84 83 88
15 17 21 33 50 56 52 53 58 64 60 55 58 58 35 25 24 26 33 29 18 14 18 22 10 36 53 70 86 91 85 90

GFSFLT1_500_rhum_348.txt.gz
RH
50 40 35 42 80 84 89 92 82 71 90 99 92 69 87 93 97 84 75 72 65 63 62 69 72 76 77 72 69 49 18 5
29 37 56 70 77 74 62 64 80 84 79 63 65 98 83 90 92 68 70 60 60 60 75 75 80 79 78 76 51 14 5 6
50 52 54 54 57 63 70 74 74 80 83 60 99 100 100 98 79 81 74 68 72 73 78 89 88 89 81 52 18 6 6 9
47 53 59 58 56 70 78 79 88 99 76 84 100 99 98 86 66 79 76 82 79 82 86 96 92 87 57 20 7 7 11 11
55 56 45 34 49 63 66 51 63 78 72 100 99 91 86 59 62 76 83 96 83 91 100 96 100 71 24 9 9 12 13 8
50 26 27 35 26 27 42 69 89 86 100 99 100 96 59 92 81 72 87 86 86 100 98 100 90 47 11 10 13 16 10 5
22 26 17 11 10 12 29 54 61 86 83 91 99 56 82 79 93 95 87 91 97 100 100 96 66 15 12 14 17 13 6 10
14 8 7 6 5 7 7 26 61 36 56 58 48 92 90 90 94 94 99 94 100 100 98 64 16 14 15 18 17 9 10 28
7 8 7 5 4 3 5 11 30 59 88 78 82 89 92 96 91 96 96 100 100 99 51 29 15 16 18 20 13 8 22 39
9 9 8 5 4 6 14 20 56 76 70 73 82 82 83 90 93 91 98 100 98 65 31 15 17 17 21 19 10 15 34 48
10 11 7 4 5 12 15 21 41 59 72 69 70 82 85 89 89 92 95 97 70 20 16 17 17 19 23 16 11 26 49 62
13 10 5 5 8 19 24 31 48 62 59 60 69 72 79 86 97 96 87 66 21 17 18 17 16 21 21 12 19 42 63 72
14 9 5 5 10 16 24 27 37 44 54 61 66 67 76 91 94 83 76 27 17 21 19 16 16 24 16 16 41 61 73 84
12 10 5 8 14 16 23 27 42 46 46 42 55 70 84 87 82 78 35 20 21 24 20 17 16 24 11 27 55 70 84 87
12 12 8 8 14 19 28 43 51 50 45 50 54 54 50 44 56 36 23 23 25 29 22 15 18 21 12 39 55 75 90 89
12 13 9 14 16 20 33 42 47 54 53 48 22 11 9 10 19 25 26 26 31 31 20 15 22 14 18 45 54 79 87 93
14 13 9 19 19 29 43 48 55 53 23 5 4 4 6 12 24 29 30 32 38 33 16 16 24 10 22 42 55 79 87 88
14 11 14 21 25 41 47 47 30 5 4 4 4 4 5 16 28 33 36 44 48 31 15 18 24 9 23 36 66 83 88 97
13 9 16 21 36 45 44 10 4 4 4 4 4 4 6 23 36 38 45 57 58 27 16 21 19 10 22 29 83 94 95 97